Location: Altleiningen
(49.5078°N, 8.0741°E)
Time: 15:33:51
(UTC+00:00)

Cosmos 2082 - Pass Details

Date: 14 June 2025
Orbit: 831 x 854 km, 71.0° (Epoch: 19 July)

Event Time Altitude Azimuth Distance (km) Brightness Sun altitude
Exits shadow 22:13:10 11° 209° (SSW) 2,435 5.7 -15.3°
Maximum altitude 22:18:46 85° 299° (WNW) 863 3.7 -15.6°
Drops below altitude 10° 22:24:32 10° 28° (NNE) 2,496 6.8 -15.8°
Sets 22:27:00 0° 29° (NNE) 3,436 7.6 -15.9°
